Regional Weather Roundup
Issued by NWS State College, PA

Home | Current Version | Previous Version | Text Only | Print | Product List | Glossary Off
Versions: 1 2 3 4 5 6 7 8 9 10 11 12 13 14 15 16 17 18 19 20 21 22 23 24 25 26 27 28 29 30 31 32 33 34 35 36 37 38 39 40 41 42 43 44 45 46 47 48 49 50

000
ASUS41 KCTP 191910
RWRCTP

REGIONAL WEATHER ROUNDUP
NATIONAL WEATHER SERVICE STATE COLLEGE PA
300 PM EDT TUE AUG 19 2014

Note: "fair" indicates few or no clouds below 12,000 feet with no
significant weather and/or obstructions to visibility.

* = STATION THAT DOES NOT REPORT PRECIPITATION /E.G. RAIN...SNOW...ETC/
    THUNDER OR FOG.

PAZ002>004-007>009-013>016-020>023-029>032-192000-
WESTERN PENNSYLVANIA

CITY           SKY/WX    TMP DP  RH WIND       PRES   REMARKS
ERIE           MOSUNNY   79  60  52 N5        29.84F
MEADVILLE      SUNNY     81  61  50 VRB5      29.87F
FRANKLIN*      SUNNY     82  61  47 W6        29.89F
NEW CASTLE     FAIR      85  64  49 CALM      29.86F
BEAVER COUNTY  SUNNY     82  63  51 SW7       29.87F
BUTLER*        SUNNY     82  61  47 CALM      29.89F
PITTSBURGH INT MOSUNNY   82  61  48 CALM      29.87F
PITTSBURGH     MOSUNNY   83  62  49 W6        29.86F
INDIANA*       MOSUNNY   81  66  61 CALM      29.92F
LATROBE        PTSUNNY   81  68  65 CALM      29.88S
WASHINGTON CO* MOSUNNY   82  64  54 W3        29.88S
$$

PAZ004>006-010>012-017>019-024>028-033>037-041-042-045-046-049>053-192000-
CENTRAL PENNSYLVANIA

CITY           SKY/WX    TMP DP  RH WIND       PRES   REMARKS
BRADFORD       MOSUNNY   79  56  45 VRB5      29.90F
DUBOIS         MOSUNNY   79  63  57 VRB5      29.89S
CLEARFIELD     CLOUDY    73  66  78 VRB3      29.91F
JOHNSTOWN      MOSUNNY   73  66  78 S12       29.93F
ALTOONA        CLOUDY    73  66  78 SE3       29.92F
STATE COLLEGE  LGT RAIN  66  66 100 SW5       29.92S
WILLIAMSPORT   MOSUNNY   79  62  56 VRB6      29.87F
SELINSGROVE    MOSUNNY   80  65  59 S7        29.89F
FT INDIANTOWN  PTSUNNY   79  65  62 S7        29.90F
CAPITAL CITY   PTSUNNY   79  64  60 E7        29.88F
HARRISBURG     PTSUNNY   82  65  56 E5        29.88F
YORK           PTSUNNY   81  66  60 SE3       29.89F
$$

PAZ038>040-043-044-047-048-054-055-060>062-067>071-192000-
EASTERN PENNSYLVANIA

CITY           SKY/WX    TMP DP  RH WIND       PRES   REMARKS
SCRANTON       CLOUDY    81  59  47 W5        29.90S
MOUNT POCONO   PTSUNNY   75  57  53 SW5       29.95F
ALLENTOWN      MOSUNNY   85  58  39 CALM      29.89F
QUAKERTOWN*    MOCLDY    82  59  44 MISG      29.90S
READING        PTSUNNY   84  61  45 S5        29.88S
LANCASTER      PTSUNNY   80  63  55 S8        29.89F
COATESVILLE    CLOUDY    81  63  54 SE5       29.91S
POTTSTOWN      MOSUNNY   82  58  43 VRB5      29.90F
BLUE BELL      MOSUNNY   82  63  51 CALM      29.87F
DOYLESTOWN     MOSUNNY   81  56  42 S5        29.88F
WILLOW GROVE   NOT AVBL
NORTH PHILA    MOSUNNY   85  58  39 CALM      29.89F
PHILADELPHIA   MOSUNNY   85  64  49 E5        29.87F
$$


USA.gov is the U.S. government's official web portal to all federal, state and local government web resources and services.